Probability
0 0 0 0 0 0 0 0 0 0 0 0 0 0 0 0 0 0 0 0 0 0 0 0 0 0 0 0 0 0 0 0 0 0 0 0 0 0 0 0 0 0 0 0
0 0 0 0 0 0 0 0 0 0 0 0 0 0 0 0 0 0 0 0 0 0 0 0 0 0 0 0 0 0 0 0 0 0 0 0 0 0 0 0 0 0 0 0
0 0 0 0 0 0 0 0 0 0 0 0 0 0 0 0 0 0 0 0 0 0 0 0 0 0 0 0 0 0 0 0 0 0 0 0 0 0 0 0 0 0 0 0
0 0 0 0 0 0 0 0 0 0 0 0 0 0 0 0 0 0 0 0 0 0 0 0 0 0 0 0 0 0 0 0 0 0 0 0 0 0 0 0 0 0 0 0
0 0 0 0 0 0 0 0 0 0 0 0 0 0 0 0 0 0 0 0 0 0 0 0 0 0 0 0 0 0 0 0 0 0 0 0 0 0 0 0 0 0 0 0
0 0 0 0 0 0 0 0 0 0 0 0 0 0 0 0 0 0 0 0 0 0 0 0 0 0 0 0 0 0 0 0 0 0 0 0 0 0 0 0 0 0 0 0
0 0 0 0 0 0 0 0 0 0 0 0 0 0 0 0 0 0 0 0 0 0 0 0 0 0 0 0 0 0 0 0 0 0 0 0 0 0 0 0 0 0 0 0
0 0 0 0 0 0 0 0 0 0 0 0 0 0 0 0 0 0 0 0 0 0 0 0 0 0 0 0 0 0 0 0 0 0 0 0 0 0 0 0 0 0 0 0
0 0 0 0 0 0 0 0 0 0 0 0 0 0 0 0 0 0 0 0 0 0 0 0 0 0 0 0 0 0 0 0 0 0 0 0 0 0 0 0 0 0 0 0
0 0 0 0 0 0 0 0 0 0 0 0 0 0 0 0 0 0 0 0 0 0 0 0 0 0 0 0 0 0 0 0 0 0 0 0 0 0 0 0 0 0 0 0
0 0 0 0 0 0 0 0 0 0 0 0 0 0 0 0 0 0 0 0 0 0 0 0 0 0 0 0 0 0 0 0 0 0 0 0 0 0 0 0 0 0 0 0
0 0 0 0 0 0 0 0 0 0 0 0 0 0 0 0 0 0 0 0 0 0 0 0 0 0 0 0 0 0 0 0 0 0 0 0 0 0 0 0 0 0 0 0
0 0 0 0 0 0 0 0 0 0 0 0 0 0 0 0 0 0 0 0 0 0 0 0 0 0 0 0 0 0 0 0 0 0 0 0 0 0 0 0 0 0 0 0
0 0 0 0 0 0 0 0 0 0 0 0 0 0 0 0 0 0 0 0 0 0 0 0 0 0 0 0 0 0 0 0 0 0 0 0 0 0 0 0 0 0 0 0
0 0 0 0 0 0 0 0 0 0 0 0 0 0 0 0 0 0 0 0 0 0 0 0 0 0 0 0 0 0 0 0 0 0 0 0 0 0 0 0 0 0 0 0
0 0 0 0 0 0 0 0 0 0 0 0 0 0 0 0 0 0 0 0 0 0 0 0 0 0 0 0 0 0 0 0 0 0 0 0 0 0 0 0 0 0 0 0
0 0 0 0 0 0 0 0 0 0 0 0 0 0 0 0 0 0 0 0 0 0 0 0 0 0 0 0 0 0 0 0 0 0 0 0 0 0 0 0 0 0 0 0
0 0 0 0 0 0 0 0 0 0 0 0 0 0 0 0 0 0 0 0 0 0 0 0 0 0 0 0 0 0 0 0 0 0 0 0 0 0 0 0 0 0 0 0
0 0 0 0 0 0 0 0 0 0 0 0 0 0 0 0 0 0 0 0 0 0 0 0 0 0 0 0 0 0 0 0 0 0 0 0 0 0 0 0 0 0 0 0
0 0 0 0 0 0 0 0 0 0 0 0 0 0 0 0 0 0 0 0 0 0 0 0 0 0 0 0 0 0 0 0 0 0 0 0 0 0 0 0 0 0 0 0
0 0 0 0 0 0 0 0 0 0 0 0 0 0 0 0 0 0 0 0 0 0 0 0 0 0 0 0 0 0 0 0 0 0 0 0 0 0 0 0 0 0 0 0
0 0 0 0 0 0 0 0 0 0 0 0 0 0 0 0 0 0 0 0 0 0 0 0 0 0 0 0 0 0 0 0 0 0 0 0 0 0 0 0 0 0 0 0
0 0 0 0 0 0 0 0 0 0 0 0 0 0 0 0 0 0 0 0 0 0 0 0 0 0 0 0 0 0 0 0 0 0 0 0 0 0 0 0 0 0 0 0
0 0 0 0 0 0 0 0 0 0 0 0 0 0 0 0 0 0 0 0 0 0 0 0 0 0 0 0 0 0 0 0 0 0 0 0 0 0 0 0 0 0 0 0
0 0 0 0 0 0 0 0 0 0 0 0 0 0 0 0 0 0 0 0 0 0 0 0 0 0 0 0 0 0 0 0 0 0 0 0 0 0 0 0 0 0 0 0
0 0 0 0 0 0 0 0 0 0 0 0 0 0 0 0 0 0 0 0 0 0 0 0 0 0 0 0 0 0 0 0 0 0 0 0 0 0 0 0 0 0 0 0
0 0 0 0 0 0 0 0 0 0 0 0 0 0 0 0 0 0 0 0 0 0 0 0 0 0 0 0 0 0 0 0 0 0 0 0 0 0 0 0 0 0 0 0
Wind_Speed
5 5 11 9 11 11 10 11 12 13 12 11 9 9 8 8 9 10 10 11 11 10 9 8 7 7 7 7 6 8 9 10 9 8 8 8 8 7 7 6 6 6 6 5
3 4 7 6 10 13 12 11 11 8 11 8 5 4 6 9 12 13 14 14 13 12 12 12 11 10 9 8 7 7 9 9 8 8 8 8 7 7 7 6 5 5 5 4
6 4 5 7 14 17 12 10 12 17 15 5 5 9 12 14 15 17 16 15 16 15 15 13 12 12 11 10 8 8 9 9 8 8 8 7 7 7 6 5 5 5 4 4
6 6 8 13 7 11 15 15 14 12 6 10 12 11 10 13 16 16 15 15 16 15 14 12 11 10 10 9 9 9 9 8 8 8 8 7 6 6 5 4 4 3 3 3
6 7 9 9 6 11 12 15 14 15 10 6 4 1 5 9 12 15 16 15 14 13 12 12 13 13 12 11 10 10 9 9 7 8 8 7 7 6 4 4 3 3 2 2
7 8 14 12 7 7 6 13 11 12 11 8 8 6 10 8 11 11 9 9 10 11 11 14 13 14 14 13 11 11 10 8 7 7 7 7 6 5 3 3 3 3 2 2
7 7 12 7 4 10 11 14 4 8 10 12 14 13 5 5 7 8 8 8 11 13 13 13 14 14 14 12 11 9 8 8 7 6 6 6 5 4 4 3 3 2 2 2
7 8 13 4 8 12 9 1 2 2 4 7 8 4 1 3 4 6 8 9 12 13 12 12 14 15 14 12 9 9 9 8 7 6 5 5 6 5 4 4 4 2 2 1
11 10 2 6 7 4 3 3 2 2 2 4 4 3 3 3 4 5 8 9 9 12 12 10 10 12 14 11 11 10 9 8 7 6 5 5 5 5 4 3 3 2 1 0
4 4 2 2 1 1 2 2 2 2 2 4 4 4 4 5 5 6 7 8 9 12 13 10 8 7 9 12 11 11 10 9 7 7 6 4 3 3 3 3 3 2 1 1
4 2 2 1 2 2 2 2 2 2 2 3 5 5 5 6 6 6 6 6 7 10 12 11 9 9 9 11 11 11 9 8 7 6 6 5 3 2 3 2 3 3 3 2
5 6 6 4 3 3 3 2 2 2 2 2 4 5 6 6 5 6 7 7 7 8 10 10 10 9 9 9 10 11 9 8 6 5 5 4 4 2 1 1 2 2 2 2
4 3 3 3 2 2 2 1 2 2 2 2 2 4 6 5 5 6 6 7 8 9 9 10 10 9 8 8 8 9 9 8 6 6 5 5 4 4 2 0 1 1 1 2
4 5 4 2 2 2 3 3 3 3 2 2 2 3 4 4 5 6 7 6 6 7 8 9 9 8 7 7 7 7 7 7 7 6 5 5 4 4 3 3 2 1 3 4
3 3 4 4 4 3 3 3 3 1 1 1 2 3 4 5 6 5 5 6 7 7 7 8 9 8 7 7 8 8 7 6 5 5 4 4 4 4 3 3 3 2 2 3
3 4 4 3 2 1 1 1 1 1 1 1 1 2 3 3 3 4 5 8 9 10 10 10 9 8 8 8 8 6 5 7 7 6 5 5 4 4 4 4 3 3 3 3
3 1 1 0 1 1 1 1 2 2 2 2 2 1 2 3 3 4 5 5 5 5 7 8 8 8 9 9 8 6 6 6 7 6 5 5 5 5 5 4 4 4 4 4
3 2 2 1 1 2 2 2 2 2 3 3 1 2 4 6 7 7 5 4 3 3 5 6 6 8 8 8 7 6 6 6 6 6 5 5 5 4 4 4 4 4 3 4
6 5 5 5 4 3 3 3 4 4 4 2 2 4 5 5 4 4 5 6 7 9 7 7 11 10 9 9 8 5 6 6 6 5 5 5 5 4 4 4 4 4 4 3
7 7 6 6 6 5 4 5 5 5 4 3 2 3 4 4 3 4 6 7 7 4 4 8 9 8 8 9 10 6 7 7 7 6 5 5 5 5 5 5 5 4 4 4
6 7 7 6 5 5 5 5 6 6 6 4 3 4 4 3 2 4 5 6 4 3 5 8 7 6 7 7 9 6 7 7 7 6 6 6 5 5 5 5 5 5 5 4
5 6 6 6 5 5 5 5 5 5 5 5 4 3 3 2 2 3 4 4 1 4 4 5 5 7 8 9 7 7 7 7 6 5 5 5 6 5 5 5 5 5 5 5
4 4 5 5 5 6 6 4 4 4 5 5 4 4 3 3 2 3 4 2 2 5 4 4 6 9 11 7 6 6 7 7 6 6 6 5 5 5 5 6 5 5 5 5
4 4 5 5 4 4 5 5 5 4 4 4 4 3 3 2 2 2 2 1 3 4 3 5 9 11 10 6 5 6 6 6 6 5 5 5 5 5 5 5 5 5 5 6
4 4 4 5 4 4 4 5 5 4 4 3 4 4 3 2 2 2 1 1 3 3 2 5 8 8 6 4 5 5 5 5 5 5 5 5 5 5 5 5 6 6 6 6
3 4 3 4 4 4 4 3 3 3 3 3 3 3 3 2 2 1 1 0 1 1 1 1 2 3 3 3 4 4 4 4 5 5 5 5 6 6 6 6 8 7 6 6
4 3 3 3 3 3 3 3 3 3 3 3 3 3 2 2 2 1 1 0 0 0 0 0 0 1 2 2 3 3 3 4 4 5 5 5 5 6 6 7 7 6 6 7
Wind_Direction
188 167 159 181 186 179 189 194 201 223 218 225 220 213 201 177 166 168 177 181 180 176 170 163 156 150 142 135 129 126 122 119 118 115 112 110 107 103 99 95 95 96 92 85
165 174 172 183 193 192 208 209 220 233 238 225 220 173 171 177 179 188 193 192 186 180 176 174 170 163 153 145 137 130 127 124 123 120 116 113 111 109 105 99 96 95 92 93
185 137 110 227 205 196 207 214 205 228 235 167 193 197 197 192 194 201 199 192 188 187 184 180 174 166 160 151 137 130 129 129 129 127 122 120 119 114 109 106 103 97 90 85
136 126 205 233 201 189 209 225 216 226 215 187 203 208 206 195 196 204 199 194 192 188 183 173 163 154 145 141 140 138 137 137 136 133 128 125 120 115 110 106 104 101 87 74
143 180 246 270 218 189 197 238 225 227 227 206 203 179 255 213 202 206 200 194 189 181 170 161 159 153 146 145 145 145 147 146 145 141 137 133 128 122 117 113 104 95 88 72
141 172 223 237 205 168 151 251 231 212 215 188 152 206 240 207 200 206 191 174 165 155 150 158 158 152 152 155 155 158 155 148 142 140 139 137 133 126 117 117 110 100 81 60
163 201 247 239 176 133 177 237 217 198 201 184 195 220 225 173 190 186 170 159 154 154 159 162 156 155 157 158 163 153 140 135 133 133 132 131 125 119 124 120 111 99 86 50
164 204 238 187 148 175 207 182 162 185 195 194 211 223 159 156 166 154 148 148 152 154 155 154 157 158 158 161 149 138 137 136 134 131 129 128 127 126 124 126 122 115 100 54
189 213 190 170 180 193 151 157 170 176 182 172 183 194 178 162 153 147 146 147 147 146 144 147 158 160 157 151 143 140 138 138 137 131 126 132 138 138 134 135 136 133 123 110
191 230 194 182 151 133 149 169 180 172 160 158 169 167 160 154 149 144 140 142 140 143 147 150 148 142 141 143 145 144 144 144 144 142 140 137 137 144 150 156 151 148 163 215
197 171 114 283 226 185 135 117 117 112 135 157 154 161 163 159 156 150 140 138 147 153 153 150 142 134 138 146 147 145 146 147 149 150 150 148 145 159 166 179 177 176 192 203
198 184 169 195 209 170 157 168 168 143 115 120 158 162 154 156 152 148 147 145 146 147 148 148 146 143 146 151 152 150 151 156 159 156 155 155 152 143 155 167 215 230 225 231
143 141 129 123 97 121 143 141 128 132 147 148 143 147 147 145 147 145 150 158 163 160 155 152 152 154 157 157 157 159 160 162 161 161 163 164 162 157 156 22 345 341 311 303
109 116 117 129 119 99 100 98 94 82 74 109 126 127 133 134 145 160 170 168 152 147 152 158 160 165 161 157 158 159 157 161 163 165 166 165 166 166 165 168 189 276 315 312
68 78 117 111 97 80 76 86 89 84 75 73 105 142 157 166 178 177 155 139 137 148 161 166 172 173 162 162 165 166 164 166 163 159 161 162 163 165 171 182 195 220 267 298
92 70 79 92 99 75 62 79 183 242 225 213 209 207 193 174 156 149 154 158 166 183 183 181 187 175 166 168 168 168 171 169 163 163 163 167 172 177 183 189 198 211 226 240
114 107 53 317 295 291 274 274 275 287 277 259 256 219 144 135 148 181 193 193 195 189 181 187 184 162 168 174 175 174 169 171 168 167 176 181 183 188 189 191 201 214 227 238
61 62 50 42 325 300 309 321 313 299 276 275 249 179 185 193 207 209 194 172 172 201 203 188 166 161 172 178 179 172 170 173 177 183 182 185 189 190 191 198 206 218 229 252
30 28 25 23 6 354 355 354 338 321 313 291 229 225 226 227 223 192 163 174 198 219 216 183 182 173 178 184 179 175 175 177 181 185 186 187 189 194 197 202 210 218 224 230
24 20 20 18 19 20 4 350 339 333 332 319 281 253 248 240 209 182 183 209 218 222 166 170 179 175 181 188 185 180 182 185 187 188 190 194 197 201 205 208 211 216 221 227
13 9 10 7 2 6 1 346 339 333 331 327 297 269 263 257 209 184 195 232 228 175 164 173 179 178 179 182 183 182 186 188 192 194 194 198 200 204 209 212 215 219 222 227
353 352 352 349 345 341 342 338 334 329 331 331 326 316 298 270 239 236 234 247 205 174 175 182 184 181 181 180 184 186 190 193 195 195 198 199 202 207 212 215 219 223 226 229
332 331 332 334 328 317 319 331 337 333 328 324 318 310 294 274 242 240 261 250 185 191 187 190 192 188 185 183 187 189 192 195 198 200 203 204 208 211 217 221 223 225 229 233
324 324 320 316 316 322 328 330 328 321 313 310 309 308 302 294 284 272 296 222 207 205 198 199 205 198 186 183 187 192 196 198 200 202 205 210 213 217 223 227 231 231 234 238
310 311 317 326 328 318 309 312 318 321 324 322 323 326 321 296 274 283 285 238 221 201 197 213 214 199 180 180 189 196 199 200 201 202 208 214 219 223 228 231 234 237 238 240
300 298 293 286 281 285 293 300 302 304 308 311 313 315 320 323 323 325 320 280 210 178 183 213 207 180 175 187 197 203 206 209 214 216 219 223 227 230 234 237 239 240 242 243
295 292 293 297 293 288 289 287 287 289 283 279 288 294 302 313 322 326 328 330 316 211 207 230 199 177 187 199 208 214 218 220 223 225 226 228 231 234 237 239 242 242 243 245